Location: Unspecified
(33.6682°S, 0.0000°E)
Time: 20:29:52
(UTC+00:00)

Vanguard 2 Rocket - Pass Details

Date: 22 June 2019
Orbit: 554 x 3326 km, 32.9° (Epoch: 21 July)

Event Time Altitude Azimuth Distance (km) Brightness Sun altitude
Rises 11:18:11 0° 273° (W) 5,899 11.0 32.0°
Reaches altitude 10° 11:22:46 10° 273° (W) 4,441 10.4 32.1°
Maximum altitude 11:33:48 86° 359° (N) 1,249 8.2 32.5°
Drops below altitude 10° 11:39:52 10° 88° (E) 2,542 9.4 32.7°
Sets 11:41:51 0° 88° (E) 3,277 9.9 32.7°
